Regional Weather Roundup
Issued by NWS

Home | Current Version | Previous Version | Text Only | Print | Product List | Glossary Off
Versions: 1 2 3 4 5 6 7 8 9 10 11 12 13 14 15 16 17 18 19 20 21 22 23 24 25 26 27 28 29 30 31 32 33 34 35 36 37 38 39 40 41 42 43 44 45 46 47 48 49 50

816
ASUS45 KCYS 230610
RWRWY

WYOMING REGIONAL WEATHER ROUNDUP
NATIONAL WEATHER SERVICE CHEYENNE WY
1200 AM MDT MON APR 23 2018

NOTE:  "FAIR" INDICATES FEW OR NO CLOUDS BELOW 12,000 FEET
WITH NO SIGNIFICANT WEATHER AND/OR OBSTRUCTIONS TO VISIBILITY.

WYZ001-230700-
YELLOWSTONE NATIONAL PARK

CITY           SKY/WX    TMP DP  RH WIND       PRES   REMARKS
LK YELLOWSTONE   N/A     30  27  88 NW3       30.07F
6HR MIN TEMP:  30; 6HR MAX TEMP:  47;

W YELLOWSTONE  NOT AVBL

$$
WYZ002>013-054>058-071-098>099-230700-
NORTHERN WYOMING

CITY           SKY/WX    TMP DP  RH WIND       PRES   REMARKS
JACKSON        FAIR      43  31  62 CALM      30.03F
CODY           FAIR      50  27  40 N10       30.04S
GREYBULL       FAIR      54  34  46 NW16      29.94R
6HR MIN TEMP:  53; 6HR MAX TEMP:  72;

WORLAND        FAIR      54  34  46 NE7       29.95S
6HR MIN TEMP:  53; 6HR MAX TEMP:  73;

SHERIDAN       FAIR      49  38  65 NE7       30.04F
6HR MIN TEMP:  49; 6HR MAX TEMP:  69;

BUFFALO        FAIR      45  36  70 W6        30.07F
6HR MIN TEMP:  45; 6HR MAX TEMP:  68;

GILLETTE       FAIR      42  36  79 CALM      30.05S
6HR MIN TEMP:  42; 6HR MAX TEMP:  67;

HULETT         FAIR      48  37  66 S9        30.08S
NEWCASTLE      FAIR      46  32  57 SE12      30.10R

$$
WYZ014>020-022>026-101>103-230700-
CENTRAL WYOMING

CITY           SKY/WX    TMP DP  RH WIND       PRES   REMARKS
BIG PINEY      MOCLDY    37  23  56 NW7       30.06F WCI  32
6HR MIN TEMP:  35; 6HR MAX TEMP:  65;

PINEDALE       FAIR      32  27  80 NW5       30.06F WCI  27
DUBOIS         FAIR      37  25  60 W5        30.05S WCI  34
LANDER         FAIR      53  25  33 W12       29.96F
6HR MIN TEMP:  53; 6HR MAX TEMP:  70;

RIVERTON       FAIR      53  30  41 N8        29.98F
6HR MIN TEMP:  49; 6HR MAX TEMP:  70;

CASPER         FAIR      43  34  70 CALM      30.03S
6HR MIN TEMP:  42; 6HR MAX TEMP:  67;

DOUGLAS        FAIR      45  36  70 SE12      30.08S
6HR MIN TEMP:  44; 6HR MAX TEMP:  67;


$$
WYZ021-027>030-104>119-230700-
SOUTHERN WYOMING

CITY           SKY/WX    TMP DP  RH WIND       PRES   REMARKS
EVANSTON       FAIR      48  24  39 SE8       30.07F
6HR MIN TEMP:  47; 6HR MAX TEMP:  65;

KEMMERER       FAIR      41  27  56 N3        30.08S
FORT BRIDGER   FAIR      47  22  37 SW12      30.09F
ROCK SPRINGS   FAIR      51  25  36 SW7       30.06S
6HR MIN TEMP:  48; 6HR MAX TEMP:  65;

DIXON          FAIR      43  29  58 E6        30.11S
RAWLINS          N/A    N/A N/A N/A MISG      30.08R
SARATOGA       FAIR      43  30  61 S9        30.10S
LARAMIE        MOCLDY    42  34  73 SE17      30.12S
6HR MIN TEMP:  42; 6HR MAX TEMP:  61;

CHEYENNE       FAIR      42  36  79 S9        30.15S
6HR MIN TEMP:  42; 6HR MAX TEMP:  62;

TORRINGTON     FAIR      41  39  93 E10       30.10F
6HR MIN TEMP:  41; 6HR MAX TEMP:  63;

PINE BLUFFS    FAIR      37  34  87 MISG      30.15S

$$




USA.gov is the U.S. government's official web portal to all federal, state and local government web resources and services.